Terminal Aerodrome Forecast
Issued by NWS Boston, MA

Home | Current Version | Previous Version | Text Only | Print | Product List | Glossary On
Versions: 1 2 3 4 5 6 7 8 9 10 11 12 13 14 15 16 17 18 19 20 21 22
000
FTUS41 KBOX 242001 AAA
TAFBDL
TAF AMD
KBDL 242001Z 2420/2524 34017G30KT P6SM SKC
     FM250000 32009KT P6SM SKC
     FM251600 25004KT P6SM SCT150
     FM252200 19007KT P6SM BKN150=

USA.gov is the U.S. government's official web portal to all federal, state and local government web resources and services.